TimeEST,TemperatureF,Dew PointF,Humidity,Sea Level PressureIn,VisibilityMPH,Wind Direction,Wind SpeedMPH,Gust SpeedMPH,PrecipitationIn,Events,Conditions,WindDirDegrees,DateUTC
12:56 AM,33.1,32.0,96,30.38,5.0,Calm,Calm,-,N/A,,Clear,0,2012-11-29 05:56:00
1:56 AM,32.0,30.9,96,30.40,7.0,Calm,Calm,-,N/A,,Clear,0,2012-11-29 06:56:00
2:56 AM,30.9,30.0,96,30.40,6.0,Calm,Calm,-,N/A,,Clear,0,2012-11-29 07:56:00
3:56 AM,30.9,30.0,96,30.40,5.0,Calm,Calm,-,N/A,,Clear,0,2012-11-29 08:56:00
4:56 AM,30.0,30.0,100,30.41,5.0,Calm,Calm,-,N/A,,Clear,0,2012-11-29 09:56:00
5:56 AM,30.0,30.0,100,30.43,5.0,North,3.5,-,N/A,,Clear,350,2012-11-29 10:56:00
6:56 AM,32.0,30.9,96,30.44,4.0,Calm,Calm,-,N/A,,Clear,0,2012-11-29 11:56:00
7:56 AM,33.1,33.1,100,30.46,6.0,Calm,Calm,-,N/A,,Clear,0,2012-11-29 12:56:00
8:56 AM,44.1,39.9,85,30.48,9.0,NNW,4.6,-,N/A,,Clear,330,2012-11-29 13:56:00
9:56 AM,48.0,39.0,71,30.50,10.0,NNW,8.1,-,N/A,,Clear,330,2012-11-29 14:56:00
10:56 AM,51.1,34.0,52,30.49,10.0,ENE,4.6,-,N/A,,Clear,70,2012-11-29 15:56:00
11:56 AM,52.0,30.0,43,30.47,10.0,Variable,4.6,-,N/A,,Clear,0,2012-11-29 16:56:00
12:56 PM,54.0,32.0,43,30.45,10.0,NW,6.9,-,N/A,,Clear,320,2012-11-29 17:56:00
1:56 PM,55.0,21.9,28,30.42,10.0,NW,8.1,-,N/A,,Clear,320,2012-11-29 18:56:00
2:56 PM,55.0,30.0,38,30.41,10.0,NW,5.8,-,N/A,,Clear,310,2012-11-29 19:56:00
3:56 PM,51.1,39.9,66,30.41,10.0,ESE,5.8,-,N/A,,Clear,120,2012-11-29 20:56:00
4:56 PM,48.0,39.0,71,30.41,10.0,ESE,5.8,-,N/A,,Clear,120,2012-11-29 21:56:00
5:56 PM,45.0,37.9,76,30.41,10.0,Calm,Calm,-,N/A,,Clear,0,2012-11-29 22:56:00
6:56 PM,39.9,37.0,89,30.43,5.0,Calm,Calm,-,N/A,,Clear,0,2012-11-29 23:56:00
7:56 PM,37.9,36.0,93,30.43,8.0,Calm,Calm,-,N/A,,Clear,0,2012-11-30 00:56:00
8:56 PM,36.0,35.1,97,30.43,8.0,Calm,Calm,-,N/A,,Clear,0,2012-11-30 01:56:00
9:56 PM,35.1,34.0,96,30.44,7.0,Calm,Calm,-,N/A,,Clear,0,2012-11-30 02:56:00
10:56 PM,34.0,33.1,96,30.43,6.0,Calm,Calm,-,N/A,,Clear,0,2012-11-30 03:56:00
11:56 PM,35.1,33.1,92,30.42,8.0,Calm,Calm,-,N/A,,Clear,0,2012-11-30 04:56:00